Weather History for Hays, KS

Change the Weather History Date:

Wednesday, May 1, 2013

  Actual Average Record
Temperature  
Mean Temperature 48 °F -  
Max Temperature 62 °F 67 °F 89 °F (2001)
Min Temperature 33 °F 44 °F 33 °F (2005)
Degree Days  
Heating Degree Days 18    
Moisture  
Dew Point 37 °F    
Average Humidity 81    
Maximum Humidity 93    
Minimum Humidity 41    
Precipitation  
Precipitation 0.04 in - - ()
Sea Level Pressure  
Sea Level Pressure 30.13 in    
Wind  
Wind Speed 20 mph (NNE)    
Max Wind Speed 32 mph    
Max Gust Speed 39 mph    
Visibility 7 miles    
Events      
Averages and records for this station are not official NWS values.
T = Trace of Precipitation, MM = Missing Value Source: NWS Daily Summary

Daily Weather History Graph

Daily Weather History Graph

Search for Another Location

Airport:

Trip Planner

Search our weather history database for the weather conditions in past years. The results will help you decide how hot, cold, wet, or windy it might be!

Date:

Astronomy

May. 01, 2013 Rise Set
Actual Time 6:39 AM CDT 8:29 PM CDT
Civil Twilight 6:10 AM CDT 8:58 PM CDT
Nautical Twilight 5:35 AM CDT 9:33 PM CDT
Astronomical Twilight 4:58 AM CDT 10:11 PM CDT
Moon 1:40 AM CDT (5/1) 12:19 PM CDT (5/1)
Length of Visible Light 14h 48m
Length of Day
13h 50m
Waning Gibbous, 59% of the Moon is Illuminated
May 1
Waning Gibbous
May 2
Last Quarter
May 9
New
May 17
First Quarter
May 24
Full

Hourly Weather History & Observations

Time (CDT) Temp. Windchill Dew Point Humidity Pressure Visibility Wind Dir Wind Speed Gust Speed Precip Events Conditions
12:15 AM 62.6 °F - 53.6 °F 72% 29.75 in 10.0 mi NE 6.9 mph - N/A   Clear
12:35 AM 62.6 °F - 53.6 °F 72% 29.75 in 10.0 mi ENE 6.9 mph - N/A   Clear
12:55 AM 62.6 °F - 53.6 °F 72% 29.76 in 10.0 mi ENE 8.1 mph - N/A   Clear
1:15 AM 62.6 °F - 53.6 °F 72% 29.78 in 10.0 mi ENE 9.2 mph - N/A   Clear
1:35 AM 60.8 °F - 53.6 °F 77% 29.79 in 10.0 mi NE 11.5 mph - N/A   Clear
1:55 AM 60.8 °F - 51.8 °F 72% 29.80 in 10.0 mi NE 15.0 mph - N/A   Mostly Cloudy
2:15 AM 60.8 °F - 50.0 °F 68% 29.81 in 10.0 mi NE 16.1 mph - N/A   Overcast
2:35 AM 60.8 °F - 48.2 °F 63% 29.82 in 10.0 mi NE 17.3 mph - N/A   Overcast
2:55 AM 59.0 °F - 46.4 °F 63% 29.84 in 10.0 mi NNE 20.7 mph 24.2 mph N/A   Overcast
3:15 AM 57.2 °F - 33.8 °F 41% 29.86 in 10.0 mi NNE 25.3 mph 34.5 mph N/A   Overcast
3:35 AM 53.6 °F - 35.6 °F 51% 29.87 in 10.0 mi NNE 26.5 mph 36.8 mph N/A   Overcast
3:55 AM 51.8 °F - 37.4 °F 58% 29.88 in 10.0 mi NE 25.3 mph 35.7 mph N/A   Overcast
4:15 AM 51.8 °F - 37.4 °F 58% 29.87 in 10.0 mi NE 29.9 mph 38.0 mph N/A   Overcast
4:35 AM 51.8 °F - 35.6 °F 54% 29.88 in 10.0 mi NE 29.9 mph 35.7 mph N/A   Overcast
5:15 AM 48.2 °F - 37.4 °F 66% 29.91 in 10.0 mi NE 32.2 mph 39.1 mph N/A   Overcast
5:35 AM 46.4 °F 37.4 °F 39.2 °F 76% 29.92 in 10.0 mi NE 28.8 mph 35.7 mph N/A   Overcast
5:55 AM 46.4 °F 38.3 °F 39.2 °F 76% 29.94 in 10.0 mi NNE 23.0 mph 28.8 mph N/A   Overcast
6:15 AM 44.6 °F 35.5 °F 39.2 °F 81% 29.94 in 10.0 mi NNE 25.3 mph 29.9 mph N/A   Overcast
6:35 AM 44.6 °F 34.9 °F 39.2 °F 81% 29.95 in 10.0 mi NNE 28.8 mph 33.4 mph N/A   Overcast
6:55 AM 44.6 °F 35.1 °F 39.2 °F 81% 29.97 in 10.0 mi NNE 27.6 mph 36.8 mph N/A   Overcast
7:15 AM 44.6 °F 35.1 °F 39.2 °F 81% 29.97 in 10.0 mi NE 27.6 mph 35.7 mph N/A   Overcast
7:35 AM 44.6 °F 35.5 °F 39.2 °F 81% 30.00 in 10.0 mi NNE 25.3 mph 35.7 mph N/A   Overcast
8:15 AM 44.6 °F 36.1 °F 39.2 °F 81% 30.03 in 10.0 mi NNE 21.9 mph 34.5 mph N/A   Overcast
8:35 AM 42.8 °F 32.7 °F 39.2 °F 87% 30.05 in 7.0 mi NNE 27.6 mph 38.0 mph N/A   Overcast
8:55 AM 42.8 °F 33.3 °F 39.2 °F 87% 30.06 in 8.0 mi NNE 24.2 mph 31.1 mph N/A   Overcast
9:15 AM 42.8 °F 32.3 °F 37.4 °F 81% 30.08 in 7.0 mi NNE 29.9 mph 33.4 mph N/A   Overcast
9:35 AM 41.0 °F 30.9 °F 37.4 °F 87% 30.09 in 4.0 mi NNE 24.2 mph 33.4 mph N/A   Overcast
9:55 AM 41.0 °F 30.2 °F 37.4 °F 87% 30.10 in 4.0 mi NNE 27.6 mph 33.4 mph 0.01 in   Overcast
10:15 AM 39.2 °F 27.4 °F 35.6 °F 87% 30.11 in 3.0 mi NNE 29.9 mph 35.7 mph 0.01 in   Overcast
10:35 AM 41.0 °F 31.6 °F 37.4 °F 87% 30.13 in 7.0 mi NNE 20.7 mph 35.7 mph 0.01 in   Overcast
10:55 AM 39.2 °F 29.0 °F 37.4 °F 93% 30.13 in 5.0 mi NNE 21.9 mph 34.5 mph 0.01 in   Overcast
11:15 AM 39.2 °F 28.7 °F 35.6 °F 87% 30.14 in 10.0 mi NNE 23.0 mph 32.2 mph N/A   Overcast
11:35 AM 39.2 °F 27.6 °F 35.6 °F 87% 30.15 in 10.0 mi NNE 28.8 mph 36.8 mph N/A   Overcast
11:55 AM 39.2 °F 28.5 °F 35.6 °F 87% 30.15 in 9.0 mi NNE 24.2 mph 35.7 mph N/A   Overcast
12:15 PM 39.2 °F 27.6 °F 35.6 °F 87% 30.17 in 5.0 mi NNE 28.8 mph 36.8 mph N/A   Overcast
12:35 PM 39.2 °F 28.3 °F 35.6 °F 87% 30.18 in 3.0 mi NNE 25.3 mph 34.5 mph N/A   Overcast
1:15 PM 37.4 °F 25.0 °F 35.6 °F 93% 30.19 in 4.0 mi NNE 29.9 mph 36.8 mph N/A   Overcast
1:35 PM 37.4 °F 25.0 °F 33.8 °F 87% 30.20 in 3.0 mi NNE 29.9 mph 36.8 mph N/A   Overcast
1:55 PM 37.4 °F 25.9 °F 33.8 °F 87% 30.20 in 5.0 mi NNE 25.3 mph 36.8 mph N/A   Overcast
2:15 PM 37.4 °F 26.1 °F 35.6 °F 93% 30.21 in 5.0 mi NNE 24.2 mph 34.5 mph 0.01 in   Overcast
2:35 PM 37.4 °F 25.9 °F 35.6 °F 93% 30.22 in 4.0 mi NNE 25.3 mph 33.4 mph 0.01 in   Overcast
2:55 PM 37.4 °F 25.4 °F 35.6 °F 93% 30.23 in 4.0 mi NNE 27.6 mph 34.5 mph 0.01 in   Overcast
3:15 PM 37.4 °F 25.2 °F 33.8 °F 87% 30.25 in 5.0 mi NNE 28.8 mph 36.8 mph N/A   Overcast
3:35 PM 37.4 °F 25.6 °F 33.8 °F 87% 30.25 in 5.0 mi NNE 26.5 mph 35.7 mph N/A   Overcast
3:55 PM 37.4 °F 25.6 °F 33.8 °F 87% 30.26 in 3.0 mi North 26.5 mph 31.1 mph 0.01 in   Overcast
4:15 PM 37.4 °F 25.2 °F 33.8 °F 87% 30.27 in 2.0 mi North 28.8 mph 36.8 mph N/A   Overcast
4:35 PM 35.6 °F 23.0 °F 32.0 °F 87% 30.28 in 3.0 mi North 27.6 mph 33.4 mph N/A   Overcast
4:55 PM 35.6 °F 23.4 °F 32.0 °F 87% 30.28 in 5.0 mi North 25.3 mph 32.2 mph N/A   Overcast
5:15 PM 35.6 °F 23.7 °F 32.0 °F 87% 30.28 in 5.0 mi North 24.2 mph 34.5 mph N/A   Overcast
5:35 PM 35.6 °F 22.7 °F 32.0 °F 87% 30.28 in 5.0 mi North 28.8 mph 35.7 mph N/A   Overcast
5:55 PM 35.6 °F 22.7 °F 32.0 °F 87% 30.29 in 5.0 mi NNE 28.8 mph 36.8 mph N/A   Overcast
6:15 PM 35.6 °F 23.2 °F 30.2 °F 81% 30.30 in 10.0 mi North 26.5 mph 36.8 mph N/A   Overcast
6:35 PM 35.6 °F 23.2 °F 30.2 °F 81% 30.31 in 5.0 mi North 26.5 mph 29.9 mph N/A   Overcast
6:55 PM 35.6 °F 23.4 °F 30.2 °F 81% 30.32 in 5.0 mi North 25.3 mph 29.9 mph N/A   Overcast
7:15 PM 33.8 °F 21.0 °F 30.2 °F 87% 30.32 in 5.0 mi North 25.3 mph 28.8 mph N/A   Overcast
7:35 PM 33.8 °F 21.6 °F 30.2 °F 87% 30.34 in 5.0 mi North 23.0 mph 31.1 mph N/A   Overcast
7:55 PM 33.8 °F 21.0 °F 30.2 °F 87% 30.35 in 6.0 mi North 25.3 mph 31.1 mph N/A   Overcast
8:35 PM 33.8 °F 21.6 °F 30.2 °F 87% 30.37 in 5.0 mi North 23.0 mph 27.6 mph N/A   Overcast
8:55 PM 33.8 °F 21.6 °F 30.2 °F 87% 30.37 in 5.0 mi North 23.0 mph 29.9 mph N/A   Overcast
9:35 PM 33.8 °F 22.5 °F 30.2 °F 87% 30.40 in 5.0 mi North 19.6 mph 28.8 mph N/A   Overcast
9:55 PM 33.8 °F 21.0 °F 30.2 °F 87% 30.41 in 5.0 mi North 25.3 mph 33.4 mph N/A   Overcast
10:15 PM 33.8 °F 21.6 °F 30.2 °F 87% 30.43 in 6.0 mi North 23.0 mph 31.1 mph N/A   Overcast
10:35 PM 33.8 °F 21.0 °F 30.2 °F 87% 30.43 in 5.0 mi North 25.3 mph 31.1 mph N/A   Overcast
10:55 PM 33.8 °F 21.3 °F 30.2 °F 87% 30.43 in 5.0 mi North 24.2 mph - N/A   Overcast
11:15 PM 33.8 °F 22.2 °F 30.2 °F 87% 30.43 in 4.0 mi North 20.7 mph 26.5 mph N/A   Overcast
11:35 PM 33.8 °F 21.9 °F 30.2 °F 87% 30.44 in 4.0 mi North 21.9 mph 26.5 mph N/A   Overcast
11:55 PM 33.8 °F 21.9 °F 30.2 °F 87% 30.45 in 5.0 mi North 21.9 mph 28.8 mph N/A   Overcast